Weather Service Report


146 
ASHW40 PHFO 212310
RWRHI 

WEATHER ROUNDUP FOR HAWAII
NATIONAL WEATHER SERVICE HONOLULU HI
100 PM HST TUE NOV 21 2017

NOTE..."FAIR" INDICATES FEW OR NO CLOUDS BELOW 12,000 FEET
WITH NO SIGNIFICANT WEATHER AND/OR OBSTRUCTIONS TO VISIBILITY.

HIZ001>004-220000-
KAUAI-NIIHAU-
  
CITY           SKY/WX    TMP DP  RH WIND       PRES   REMARKS
LIHUE          CLOUDY    74  62  66 N13       29.97F                  
BARKING SANDS  MOSUNNY   76  32  20 N17       29.95                   
$$

HIZ005>011-220000-
OAHU-
  
CITY           SKY/WX    TMP DP  RH WIND       PRES   REMARKS
HONOLULU       MOSUNNY   80  56  43 E12       29.93F                  
KALAELOA       CLOUDY    77  60  55 E3        29.95                   
KANEOHE MCB    SUNNY     78  59  51 N3        29.91F                  
WHEELER FIELD  FAIR      73  59  61 N6        29.97                   
$$

HIZ012>022-220000-
MAUI-MOLOKAI-LANAI-KAHOOLAWE-
  
CITY           SKY/WX    TMP DP  RH WIND       PRES   REMARKS
KAHULUI        MOSUNNY   81  63  54 NE17      29.94F                  
KAPALUA        MOSUNNY   77  59  53 N15       29.95                   
MOLOKAI AIRPT  SUNNY     78  59  51 N10G21    29.95F                  
LANAI CITY     FAIR      75  58  55 NE14      29.97F                  
$$

HIZ023>028-220000-
BIG ISLAND OF HAWAII-
  
CITY           SKY/WX    TMP DP  RH WIND       PRES   REMARKS
KAILUA KONA    MOSUNNY   82  59  45 NW17      29.88F                  
BRADSHAW FIELD SUNNY     65  45  48 W8        30.16                   
HILO           CLOUDY    75  63  66 N8        29.92F                  
$$ 

PHZ110>124-180-220000-
BUOY REPORTS
  
STATION/POSITION TIME  TEMP    WIND        PRES    WAVE   SWELL
                       AIR SEA DIR/SP/G            HT/PER HT
                 (UTC) (F)     (DEG/KT/KT) (MB)    (FT/S) (FT)
BUOY 51001       2250   71 77   40/ 19/ 27 1017.1   12/11  10
BUOY 51002       2250   78 81   50/  8/ 12 1012.1    6/12   7
BUOY 51003       2250   77 81   40/ 14/ 17 1013.4    8/11   7
BUOY 51004       2250   77 80   30/  8/ 12 1012.2    9/12   8
$$

  

Return to Home page


Western Regional Climate Center, wrcc@dri.edu